Location: Austin
(30.3000°N, 97.7500°W)
Time: 13:25:24
(UTC-06:00)

Cosmos 1674 Rocket - Pass Details

Date: 04 November 2025
Orbit: 597 x 622 km, 82.5° (Epoch: 07 November)

Event Time Altitude Azimuth Distance (km) Brightness Sun altitude
Rises 18:34:13 0° 355° (N) 2,887 6.9 -12.0°
Reaches altitude 10° 18:36:27 10° 356° (N) 1,975 6.1 -12.5°
Maximum altitude 18:40:50 82° 84° (E) 620 3.4 -13.4°
Drops below altitude 10° 18:45:09 10° 172° (S) 1,947 6.1 -14.3°
Sets 18:47:20 0° 173° (S) 2,843 7.0 -14.8°
